Flag for U.S.A. Weather past 2 weeks in Evansville, Indiana, U.S.A.

Now
52 °F

Light rain. Overcast.


Feels Like: 50 °F
Forecast: 49 / 53 °F
Wind: 6 mph from South

Location: Evansville Regional Airport

Current Time: Dec 22, 2014 at 8:47:24 PM

Latest Report: Dec 22, 2014 at 7:54 PM


Visibility: 10 mi

Pressure: 29.65 "Hg

Humidity: 86%

Dew point: 48 °F

Location of EvansvilleLocation

Historic Weather in Evansville — Graph

°F

Evansville temperature yesterday

Maximum temperature yesterday: 45 °F (at 2:54 PM)
Minimum temperature yesterday: 27 °F (at 2:54 AM)
Average temperature yesterday: 34 °F

Past Weeks' High & Low Weather Summary

 TemperatureHumidityPressure
High53 °F (Dec 15, 9:54 PM)96% (Dec 14, 7:54 AM)30.45 "Hg (Dec 14, 7:54 AM)
Low23 °F (Dec 12, 4:54 AM)58% (Dec 11, 1:54 PM)29.65 "Hg (Dec 22, 6:54 PM)
Average38 °F77%30.21 "Hg
* Reported Dec 7 7:54 PM — Dec 22 7:54 PM, Evansville, Weather by CustomWeather, © 2014

Note: Actual official high and low records may vary slightly from our data, if they occured in-between our weather recording intervals... More about our weather records

Advertising

Evansville weather history for previous 24 hours

 ConditionsComfort  
Time TempWeatherWind HumidityBarometerVisibility
7:54 PM
Dec 22
52 °FLight rain. Overcast.6 mph86%29.65 "Hg10 mi
6:54 PM52 °FRain. Overcast.8 mph83%29.65 "Hg5 mi
5:54 PM52 °FOvercast.8 mph80%29.66 "Hg10 mi
5:04 PM52 °FMostly cloudy.12 mph80%29.67 "Hg10 mi
3:54 PM52 °FOvercast.10 mph80%29.70 "Hg10 mi
2:54 PM51 °FLight rain. Mostly cloudy.8 mph80%29.71 "Hg7 mi
1:54 PM51 °FLight rain. Overcast.10 mph80%29.72 "Hg9 mi
12:54 PM51 °FOvercast.9 mph77%29.76 "Hg10 mi
11:54 AM51 °FCloudy.10 mph77%29.80 "Hg9 mi
10:54 AM50 °FMostly cloudy.9 mph77%29.85 "Hg9 mi
9:54 AM48 °FOvercast.6 mph80%29.88 "Hg9 mi
8:54 AM46 °FOvercast.9 mph77%29.90 "Hg10 mi
8:01 AM43 °FOvercast.5 mph79%29.91 "Hg10 mi
6:54 AM41 °FOvercast.3 mph76%29.92 "Hg10 mi
6:02 AM39 °FMostly cloudy.3 mph76%29.92 "Hg10 mi
5:54 AM39 °FMostly cloudy.3 mph76%29.93 "Hg10 mi
4:54 AM38 °FOvercast.5 mph76%29.94 "Hg10 mi
3:54 AM36 °FMostly cloudy.No wind82%29.96 "Hg10 mi
2:54 AM36 °FOvercast.5 mph79%29.98 "Hg9 mi
1:54 AM35 °FOvercast.5 mph78%29.99 "Hg9 mi
12:54 AM35 °FOvercast.6 mph75%29.99 "Hg9 mi
11:54 PM
Dec 21
34 °FClear.5 mph76%30.02 "Hg10 mi
10:54 PM34 °FClear.6 mph76%30.03 "Hg10 mi
9:54 PM35 °FClear.5 mph72%30.06 "Hg10 mi
8:54 PM36 °FClear.6 mph73%30.07 "Hg10 mi
Weather by CustomWeather, © 2014

See weather overviewHow to use our weather pages